Date,TemperatureHighF,TemperatureAvgF,TemperatureLowF,DewpointHighF,DewpointAvgF,DewpointLowF,HumidityHigh,HumidityAvg,HumidityLow,PressureMaxIn,PressureMinIn,WindSpeedMaxMPH,WindSpeedAvgMPH,GustSpeedMaxMPH,PrecipitationSumIn
2013-2-1,55.9,43.4,27.0,31.6,18.3,-2.9,62,42,10,30.37,30.11,8,3,25,0.00
2013-2-2,62.8,42.5,24.1,37.4,15.6,3.1,72,41,10,30.38,30.11,6,1,17,0.00
2013-2-3,64.9,49.0,38.1,40.2,32.8,24.0,91,58,24,30.11,29.93,9,3,27,0.00
2013-2-4,56.5,41.0,29.3,33.7,28.8,24.3,93,65,31,30.16,30.05,3,0,7,0.00
2013-2-5,71.1,51.3,33.4,48.5,40.7,30.8,96,70,39,30.06,29.97,5,1,14,0.00
2013-2-6,80.2,56.6,41.9,54.8,40.0,24.2,100,64,14,30.18,30.03,3,1,9,0.00
2013-2-7,50.9,47.8,44.2,50.6,45.6,36.6,100,93,59,30.19,29.87,8,3,21,3.40
2013-2-8,68.0,50.7,42.4,51.4,46.8,42.2,100,88,55,30.12,29.87,7,2,15,0.00
2013-2-9,73.6,49.3,32.2,46.0,28.8,8.8,100,54,10,30.32,30.11,3,1,10,0.00
2013-2-10,70.2,53.0,35.8,57.0,42.8,28.5,100,70,41,30.40,30.14,6,2,17,0.35
2013-2-11,72.9,60.1,54.5,66.3,59.4,54.2,100,98,78,30.22,30.06,5,2,16,1.29
2013-2-12,72.9,56.5,48.6,55.7,50.1,41.6,100,83,35,30.14,29.87,4,1,12,1.16
2013-2-13,60.3,51.4,46.0,58.5,49.7,43.0,100,94,75,29.91,29.73,5,2,16,0.13
2013-2-14,57.7,44.8,36.1,43.3,39.3,35.9,100,83,53,30.09,29.90,3,1,8,0.00
2013-2-15,70.9,48.7,30.6,49.5,36.2,28.0,99,71,21,30.12,29.96,3,0,10,0.02
2013-2-16,54.7,41.8,32.9,43.6,33.0,16.7,100,74,33,30.08,29.83,8,2,23,0.24
2013-2-17,53.1,36.6,26.4,19.0,13.6,3.3,72,43,14,30.31,30.07,7,3,23,0.00
2013-2-18,65.1,42.9,22.8,34.2,21.5,13.7,91,51,16,30.41,30.25,3,1,10,0.00
2013-2-19,59.2,45.0,34.2,53.6,41.3,26.3,100,87,60,30.25,29.99,4,1,14,0.38
2013-2-20,65.8,46.7,27.3,35.1,25.5,13.1,85,49,13,30.18,30.06,3,1,10,0.00
2013-2-21,75.0,51.4,33.1,38.2,27.9,16.7,84,47,11,30.21,30.07,4,1,11,0.00
2013-2-22,51.6,43.4,39.6,42.7,40.0,32.6,100,89,52,30.20,30.10,6,3,15,0.77
2013-2-23,46.4,43.1,38.8,46.1,42.8,38.6,99,99,99,30.10,29.85,6,1,27,0.78
2013-2-24,77.2,54.3,42.3,52.6,42.7,27.4,99,73,17,30.01,29.88,3,1,10,0.02
2013-2-25,48.6,44.9,39.0,44.3,37.6,31.8,100,77,54,30.09,29.94,6,3,17,0.00
2013-2-26,60.1,46.8,37.9,58.9,46.4,37.7,100,98,91,29.97,29.57,6,3,14,1.58
2013-2-27,67.5,51.7,40.5,46.1,40.6,37.6,100,69,35,29.90,29.76,5,2,14,0.02
2013-2-28,60.3,48.8,38.7,42.3,35.0,29.0,84,61,36,29.94,29.81,6,3,18,0.00